Weather History for Dillon, MT

Change the Weather History Date:

Thursday, January 30, 2014

  Actual Average Record
Temperature  
Mean Temperature 20 °F 24 °F  
Max Temperature 33 °F 34 °F 55 °F (1971)
Min Temperature 7 °F 14 °F -26 °F (1951)
Degree Days  
Heating Degree Days 45    
Month to date heating degree days 1056  
Since 1 July heating degree days 4386  
Cooling Degree Days 0    
Month to date cooling degree days 0  
Year to date cooling degree days 0  
Moisture  
Dew Point 10 °F    
Average Humidity 73    
Maximum Humidity 88    
Minimum Humidity 57    
Precipitation  
Precipitation T in 0.01 in 0.10 in (1968)
Month to date precipitation 0.02 0.27  
Year to date precipitation 0.02 0.27  
Snow  
Snow 0.00 in - - ()
Snow Depth 0.00 in    
Sea Level Pressure  
Sea Level Pressure 29.79 in    
Wind  
Wind Speed 11 mph (NE)    
Max Wind Speed 25 mph    
Max Gust Speed 32 mph    
Visibility 10 miles    
Events Snow    
T = Trace of Precipitation, MM = Missing Value Source: NWS Daily Summary

Daily Weather History Graph

Daily Weather History Graph

Search for Another Location

Airport:

Trip Planner

Search our weather history database for the weather conditions in past years. The results will help you decide how hot, cold, wet, or windy it might be!

Date:

Astronomy

Jan. 30, 2014 Rise Set
Actual Time 7:52 AM MST 5:34 PM MST
Civil Twilight 7:21 AM MST 6:06 PM MST
Nautical Twilight 6:45 AM MST 6:41 PM MST
Astronomical Twilight 6:11 AM MST 7:16 PM MST
Moon 7:19 AM MST 5:54 PM MST
Length of Visible Light 10h 45m
Length of Day
9h 42m
Waning Crescent, 0% of the Moon is Illuminated
Jan 30
Waning Crescent
Jan 30
New
Feb 6
First Quarter
Feb 14
Full
Feb 22
Last Quarter

Hourly Weather History & Observations

Time (MST) Temp. Windchill Dew Point Humidity Pressure Visibility Wind Dir Wind Speed Gust Speed Precip Events Conditions
12:53 AM 28.0 °F 16.1 °F 17.1 °F 63% 29.60 in 10.0 mi SW 16.1 mph - N/A   Clear
1:53 AM 28.0 °F 19.3 °F 17.1 °F 63% 29.60 in 10.0 mi SSW 9.2 mph - N/A   Partly Cloudy
2:53 AM 28.0 °F 21.7 °F 18.0 °F 66% 29.61 in 10.0 mi SSW 5.8 mph - N/A   Partly Cloudy
3:53 AM 28.9 °F 18.2 °F 19.9 °F 69% 29.60 in 10.0 mi SSW 13.8 mph - N/A   Partly Cloudy
4:53 AM 28.9 °F 18.6 °F 21.0 °F 72% 29.61 in 10.0 mi SSW 12.7 mph - N/A   Mostly Cloudy
5:53 AM 32.0 °F 23.0 °F 21.0 °F 64% 29.61 in 10.0 mi SSW 11.5 mph - N/A   Overcast
6:53 AM 19.0 °F 3.6 °F 15.1 °F 85% 29.69 in 10.0 mi NE 18.4 mph - N/A   Overcast
7:53 AM 15.1 °F -3.3 °F 10.9 °F 84% 29.76 in 7.0 mi NE 23.0 mph 29.9 mph N/A   Overcast
8:53 AM 16.0 °F -0.4 °F 10.9 °F 81% 29.77 in 10.0 mi NE 18.4 mph - N/A   Overcast
9:53 AM 15.1 °F -2.9 °F 10.0 °F 80% 29.84 in 3.0 mi NE 21.9 mph - 0.00 in Snow Light Snow
10:53 AM 16.0 °F 0.6 °F 10.0 °F 77% 29.86 in 7.0 mi NE 16.1 mph - 0.00 in   Overcast
11:41 AM 17.1 °F 2.0 °F 10.0 °F 74% 29.74 in 10.0 mi NE 16.1 mph - N/A   Scattered Clouds
11:53 AM 17.1 °F 2.0 °F 9.0 °F 71% 29.87 in 10.0 mi NE 16.1 mph - N/A   Partly Cloudy
12:19 PM 17.1 °F 2.0 °F 9.0 °F 71% 29.73 in 10.0 mi NE 16.1 mph - N/A   Mostly Cloudy
12:28 PM 18.0 °F 2.6 °F 9.0 °F 68% 29.73 in 10.0 mi NE 17.3 mph - N/A   Scattered Clouds
12:53 PM 19.0 °F 5.6 °F 9.0 °F 65% 29.85 in 10.0 mi ENE 13.8 mph - N/A   Clear
1:23 PM 19.0 °F 5.0 °F 9.0 °F 65% 29.72 in 10.0 mi NE 15.0 mph - N/A   Mostly Cloudy
1:53 PM 19.9 °F 7.9 °F 10.0 °F 65% 29.85 in 10.0 mi NE 11.5 mph - N/A   Overcast
2:21 PM 21.0 °F 10.6 °F 10.0 °F 63% 29.71 in 10.0 mi NE 9.2 mph - N/A   Mostly Cloudy
2:53 PM 21.9 °F 11.7 °F 10.0 °F 60% 29.82 in 10.0 mi NE 9.2 mph - N/A   Overcast
3:53 PM 21.0 °F 8.6 °F 9.0 °F 60% 29.83 in 10.0 mi NE 12.7 mph - N/A   Overcast
4:53 PM 17.1 °F 3.6 °F 8.1 °F 68% 29.85 in 10.0 mi NE 12.7 mph - N/A   Clear
5:53 PM 12.0 °F -1.3 °F 5.0 °F 73% 29.87 in 10.0 mi ENE 10.4 mph - N/A   Clear
6:53 PM 10.9 °F -1.8 °F 5.0 °F 77% 29.94 in 10.0 mi ENE 9.2 mph - N/A   Scattered Clouds
7:04 PM 10.9 °F -2.6 °F 5.0 °F 77% 29.74 in 10.0 mi ENE 10.4 mph - N/A   Mostly Cloudy
7:11 PM 10.9 °F -1.8 °F 5.0 °F 77% 29.74 in 10.0 mi ENE 9.2 mph - N/A   Scattered Clouds
7:53 PM 10.0 °F 3.6 °F 5.0 °F 80% 29.96 in 10.0 mi North 3.5 mph - N/A   Partly Cloudy
8:53 PM 7.0 °F 0.1 °F 3.9 °F 87% 29.98 in 10.0 mi NNE 3.5 mph - N/A   Clear
9:53 PM 8.1 °F - 5.0 °F 87% 29.98 in 10.0 mi Calm Calm - N/A   Scattered Clouds
10:53 PM 10.0 °F - 7.0 °F 87% 29.98 in 10.0 mi Calm Calm - N/A   Overcast
11:53 PM 8.1 °F - 5.0 °F 87% 29.98 in 10.0 mi Calm Calm - 0.00 in   Overcast